Regional Weather Roundup
Issued by NWS

Home | Current Version | Previous Version | Text Only | Print | Product List | Glossary Off
Versions: 1 2 3 4 5 6 7 8 9 10 11 12 13 14 15 16 17 18 19 20 21 22 23 24 25 26 27 28 29 30 31 32 33 34 35 36 37 38 39 40 41 42 43 44 45 46 47 48 49 50

000
ASUS45 KCYS 281510
RWRWY

WYOMING REGIONAL WEATHER ROUNDUP
NATIONAL WEATHER SERVICE CHEYENNE WY
900 AM MDT SUN AUG 28 2016

NOTE:  "FAIR" INDICATES FEW OR NO CLOUDS BELOW 12,000 FEET
WITH NO SIGNIFICANT WEATHER AND/OR OBSTRUCTIONS TO VISIBILITY.

WYZ001-281600-
YELLOWSTONE NATIONAL PARK

CITY           SKY/WX    TMP DP  RH WIND       PRES   REMARKS
LK YELLOWSTONE   N/A     48  38  68 CALM      30.34R
W YELLOWSTONE  NOT AVBL

$$
WYZ002>013-054>058-071-098>099-281600-
NORTHERN WYOMING

CITY           SKY/WX    TMP DP  RH WIND       PRES   REMARKS
JACKSON        SUNNY     48  28  46 CALM      30.28R
CODY           FAIR      70  30  23 W10       30.10R
GREYBULL       FAIR      59  35  40 CALM      30.06R
WORLAND        FAIR      59  33  37 SW6       30.07R
SHERIDAN       FAIR      68  50  52 CALM      30.01R
BUFFALO        FAIR      79  29  16 NW8       30.08R
GILLETTE       FAIR      70  37  29 CALM      30.04R
HULETT         FAIR      68  43  40 SW8       30.04R
NEWCASTLE      FAIR      61  46  59 CALM      30.07S

$$
WYZ014>020-022>026-101>103-281600-
CENTRAL WYOMING

CITY           SKY/WX    TMP DP  RH WIND       PRES   REMARKS
BIG PINEY      FAIR      49  30  48 CALM      30.32R
PINEDALE       FAIR      50  32  50 CALM      30.33R
DUBOIS         FAIR      57  25  28 NW13      30.27S
LANDER         FAIR      62  36  37 N3        30.16R
RIVERTON       FAIR      65  30  27 CALM      30.17R
CASPER         FAIR      69  35  28 SW18G25   30.16R
DOUGLAS        FAIR      67  38  34 N3        30.14R

$$
WYZ021-027>030-104>119-281600-
SOUTHERN WYOMING

CITY           SKY/WX    TMP DP  RH WIND       PRES   REMARKS
EVANSTON       FAIR      58  29  33 S8        30.32R
FORT BRIDGER   FAIR      66  27  23 W6        30.35R
ROCK SPRINGS   FAIR      60  28  29 CALM      30.30R
DIXON          FAIR      58  37  44 E9        30.34S
RAWLINS        FAIR      67  35  30 W8        30.29R
SARATOGA       FAIR      63  34  34 SE10G17   30.32S
LARAMIE        FAIR      60  37  42 S8        30.31S
CHEYENNE       FAIR      71  37  28 W9        30.22S
TORRINGTON     FAIR      65  44  46 CALM      30.09S
PINE BLUFFS    FAIR      66  37  34 SW5       30.18R

$$



USA.gov is the U.S. government's official web portal to all federal, state and local government web resources and services.